Location: Bothwell
(42.3833°S, 147.0000°E)
Time: 23:50:04
(UTC+10:00)

XW-2B - Visible Passes

Search period start: 01 October 2022 00:00
Search period end: 11 October 2022 01:00
Orbit: 495 x 512 km, 97.5° (Epoch: 01 October)

Date Brightness Start Highest point End Pass type
(mag) Time Alt. Az. Time Alt. Az. Time Alt. Az.
01 Oct ? 05:00:19 10° NE 05:03:48 36° ESE 05:07:18 10° S visible
01 Oct ? 19:38:09 10° SW 19:40:00 13° WSW 19:41:50 10° W visible
02 Oct ? 05:42:24 10° ENE 05:45:24 23° ESE 05:48:25 10° SSE visible
02 Oct ? 20:18:48 10° SSW 20:21:39 21° WSW 20:24:29 10° WNW visible
03 Oct ? 05:24:56 10° E 05:27:03 15° ESE 05:29:10 10° SSE visible
03 Oct ? 19:59:51 10° S 20:03:14 33° WSW 20:06:36 10° NW visible
04 Oct ? 19:41:05 10° S 19:44:47 57° WSW 19:48:23 10° NNW visible
06 Oct ? 06:01:24 10° NE 06:04:53 37° ESE 06:08:24 10° S visible
06 Oct ? 20:39:15 10° SW 20:41:01 13° WSW 20:42:47 10° W visible
07 Oct ? 05:43:25 10° ENE 05:46:25 23° ESE 05:49:27 10° SSE visible
07 Oct ? 20:19:48 10° SSW 20:22:36 20° WSW 20:25:23 10° WNW visible
08 Oct ? 05:25:51 10° E 05:27:59 15° ESE 05:30:08 10° SSE visible
08 Oct ? 20:00:46 10° S 20:04:08 33° WSW 20:07:28 10° NW visible
